Location: Red Bud (historical)
(37.7759°N, 88.4053°W)
Time: 22:42:07
(UTC+00:00)

Cosmos 1939 Rocket - Pass Details

Date: 29 October 2020
Orbit: 532 x 584 km, 97.4° (Epoch: 28 November)

Event Time Altitude Azimuth Distance (km) Brightness Sun altitude
Rises 23:16:37 0° 136° (SE) 2,730 6.1 -4.4°
Reaches altitude 10° 23:19:06 10° 121° (ESE) 1,830 5.1 -4.9°
Maximum altitude 23:22:09 22° 70° (ENE) 1,241 4.0 -5.5°
Drops below altitude 10° 23:25:10 10° 20° (NNE) 1,817 5.2 -6.1°
Sets 23:27:38 0° 4° (N) 2,706 6.2 -6.6°
